Regional Weather Roundup
Issued by NWS

Home | Current Version | Previous Version | Text Only | Print | Product List | Glossary Off
Versions: 1 2 3 4 5 6 7 8 9 10 11 12 13 14 15 16 17 18 19 20 21 22 23 24 25 26 27 28 29 30 31 32 33 34 35 36 37 38 39 40 41 42 43 44 45 46 47 48 49 50

000
ASUS44 KMEG 241300
RWRTN
TENNESSEE HOURLY STATE WEATHER ROUNDUP
NATIONAL WEATHER SERVICE MEMPHIS TN
800 AM CDT WED MAY 24 2017

TNZ002-004-019-021-049-052-054-088>092-241400-
WEST TENNESSEE

CITY           SKY/WX    TMP DP  RH WIND       PRES   REMARKS
MEMPHIS INTL   CLOUDY    60  57  89 NW5       29.57S
NWS MEMPHIS      N/A     58 N/A N/A MISG        N/A
JACKSON        LGT RAIN  58  56  93 N10       29.53S
DYERSBURG        N/A    N/A N/A N/A MISG        N/A
$$

TNZ008-025-027-028-033-062-065-066-241400-
NORTH MIDDLE TENNESSEE

CITY           SKY/WX    TMP DP  RH WIND       PRES   REMARKS
NASHVILLE      CLOUDY    62  60  93 E5        29.50F
CLARKSVILLE    LGT RAIN  60  58  92 N8        29.50F FOG
SMYRNA         LGT RAIN  62  59  90 CALM      29.51S
CROSSVILLE     HVY RAIN  60  59  96 SE5       29.54F VSB 3/4
$$

TNZ061-075-076-078-094-096-097-241400-
SOUTH MIDDLE TENNESSEE

CITY           SKY/WX    TMP DP  RH WIND       PRES   REMARKS
TULLAHOMA      MOSUNNY   61  61 100 SE7       29.50F
WINCHESTER     PTSUNNY   61  59  94 SE6         N/A
$$

TNZ017-018-042-046-047-241400-
NORTHEAST TENNESSEE

CITY           SKY/WX    TMP DP  RH WIND       PRES   REMARKS
TRI CITIES     PTSUNNY   65  61  87 CALM      29.61S
$$

TNZ012-013-036-069-073-074-241400-
CENTRAL EAST TENNESSEE

CITY           SKY/WX    TMP DP  RH WIND       PRES   REMARKS
KNOXVILLE      CLOUDY    63  60  90 NE8       29.51F
OAK RIDGE      CLOUDY    64  60  87 CALM      29.53F
GATLINBURG     PTSUNNY   61  59  94 CALM      29.54F
$$

TNZ083-085-099-241400-
SOUTHEAST TENNESSEE

CITY           SKY/WX    TMP DP  RH WIND       PRES   REMARKS
CHATTANOOGA    LGT RAIN  63  59  87 NW9G20    29.54R FOG
$$

SKY/WX REPORTED AS FAIR MEANS FEW OR NO CLOUDS BELOW
12 THOUSAND FEET.





USA.gov is the U.S. government's official web portal to all federal, state and local government web resources and services.